Weather History for KDFW - August, 2013

Change the Weather History Date:

Thursday, August 29, 2013

  Actual Average Record
Temperature  
Mean Temperature 89 °F 84 °F  
Max Temperature 102 °F 94 °F 105 °F (1951)
Min Temperature 76 °F 73 °F 60 °F (1992)
Degree Days  
Heating Degree Days 0 0  
Month to date heating degree days 0 0  
Since 1 June heating degree days 0 0  
Since 1 July heating degree days 0 0  
Cooling Degree Days 24 19  
Month to date cooling degree days 640 596  
Year to date cooling degree days 2176 2140  
Since 1 June cooling degree days 1787 1718  
Growing Degree Days 38 (Base 50)    
Moisture  
Dew Point 62 °F    
Average Humidity 44    
Maximum Humidity 64    
Minimum Humidity 24    
Precipitation  
Precipitation 0.00 in 0.08 in 1.74 in (1970)
Month to date precipitation 1.32 1.74  
Year to date precipitation 18.67 23.94  
Sea Level Pressure  
Sea Level Pressure 29.98 in    
Wind  
Wind Speed 5 mph (SSW)    
Max Wind Speed 14 mph    
Max Gust Speed 17 mph    
Visibility 10 miles    
Events      
T = Trace of Precipitation, MM = Missing Value Source: NWS Daily Summary

Daily Weather History Graph

Daily Weather History Graph

Search for Another Location

Airport or City:

Trip Planner

Search our weather history database for the weather conditions in past years. The results will help you decide how hot, cold, wet, or windy it might be!

Date:

Astronomy

Aug. 29, 2013 Rise Set
Actual Time 7:00 AM CDT 7:56 PM CDT
Civil Twilight 6:35 AM CDT 8:21 PM CDT
Nautical Twilight 6:05 AM CDT 8:51 PM CDT
Astronomical Twilight 5:34 AM CDT 9:22 PM CDT
Moon 1:02 AM CDT (8/29) 3:16 PM CDT (8/29)
Length of Visible Light 13h 46m
Length of Day
12h 55m
Last Quarter, 38% of the Moon is Illuminated
Aug 29
Last Quarter
Sep 5
New
Sep 12
First Quarter
Sep 19
Full
Sep 26
Last Quarter

Hourly Weather History & Observations

Time (CDT) Temp. Heat Index Dew Point Humidity Pressure Visibility Wind Dir Wind Speed Gust Speed Precip Events Conditions
12:53 AM 82.0 °F 83.4 °F 64.0 °F 54% 29.99 in 10.0 mi South 5.8 mph - N/A   Clear
1:53 AM 82.0 °F 83.4 °F 64.0 °F 54% 29.99 in 10.0 mi SSW 6.9 mph - N/A   Clear
2:53 AM 82.0 °F 83.4 °F 64.0 °F 54% 29.99 in 10.0 mi SSW 5.8 mph - N/A   Clear
3:53 AM 82.0 °F 83.4 °F 64.0 °F 54% 29.99 in 10.0 mi SW 6.9 mph - N/A   Clear
4:53 AM 79.0 °F - 64.0 °F 60% 29.99 in 10.0 mi SSW 6.9 mph - N/A   Clear
5:53 AM 77.0 °F - 64.9 °F 66% 30.01 in 10.0 mi South 3.5 mph - N/A   Partly Cloudy
6:53 AM 77.0 °F - 64.9 °F 66% 30.02 in 10.0 mi South 5.8 mph - N/A   Partly Cloudy
7:53 AM 79.0 °F - 64.9 °F 62% 30.04 in 10.0 mi SSW 4.6 mph - N/A   Clear
8:53 AM 84.9 °F 86.6 °F 64.9 °F 51% 30.04 in 10.0 mi WSW 10.4 mph - N/A   Clear
9:53 AM 89.1 °F 91.0 °F 64.9 °F 45% 30.05 in 10.0 mi West 9.2 mph - N/A   Clear
10:53 AM 93.0 °F 95.0 °F 64.9 °F 39% 30.05 in 10.0 mi SW 8.1 mph - N/A   Clear
11:53 AM 93.9 °F 95.2 °F 63.0 °F 36% 30.04 in 10.0 mi SW 8.1 mph - N/A   Scattered Clouds
12:53 PM 97.0 °F 96.5 °F 59.0 °F 28% 30.02 in 10.0 mi Variable 5.8 mph - N/A   Scattered Clouds
1:53 PM 98.1 °F 97.7 °F 59.0 °F 27% 29.99 in 10.0 mi Variable 4.6 mph - N/A   Scattered Clouds
2:53 PM 100.0 °F 100.7 °F 60.1 °F 27% 29.97 in 10.0 mi SSW 3.5 mph - N/A   Mostly Cloudy
3:53 PM 100.0 °F 100.2 °F 59.0 °F 26% 29.95 in 10.0 mi Variable 5.8 mph - N/A   Mostly Cloudy
4:53 PM 99.0 °F 98.1 °F 57.9 °F 25% 29.93 in 10.0 mi Calm Calm - N/A   Mostly Cloudy
5:53 PM 100.0 °F 99.7 °F 57.9 °F 25% 29.92 in 10.0 mi Calm Calm - N/A   Scattered Clouds
6:53 PM 99.0 °F 98.6 °F 59.0 °F 26% 29.92 in 10.0 mi NNE 5.8 mph - N/A   Partly Cloudy
7:53 PM 95.0 °F 94.4 °F 59.0 °F 30% 29.92 in 10.0 mi East 4.6 mph - N/A   Partly Cloudy
8:53 PM 91.9 °F 91.5 °F 60.1 °F 34% 29.93 in 10.0 mi East 5.8 mph - N/A   Partly Cloudy
9:53 PM 89.1 °F 89.0 °F 61.0 °F 39% 29.94 in 10.0 mi Calm Calm - N/A   Clear
10:53 PM 88.0 °F 87.9 °F 61.0 °F 40% 29.94 in 10.0 mi Variable 3.5 mph - N/A   Clear
11:53 PM 87.1 °F 87.5 °F 62.1 °F 43% 29.94 in 10.0 mi SSE 3.5 mph - N/A   Clear